SHT4A EGLL-EGAC

Flight info

Callsign SHT4A
Flight time N/A
Altitude 36000
Route ULTIB T420 TNT UL28 RODOL UM65 TENSO L603 BELOX DCT REMSI DCT NINEB M148 MAGEE
Aircraft A319/M-SDE3FGHIRWY/LB1

Departure

Time N/A
Airport London Heathrow Airport (EGLL)

Arrival

Time 2026-04-30 21:58
Airport George Best Belfast City Airport (EGAC)
Time Latitude Longitude Altitude Speed Heading
2026-04-30 21:20 52.84963 -1.45925 36249 ft 440 kts 327°
2026-04-30 21:20 52.87603 -1.48629 36237 ft 440 kts 327°
2026-04-30 21:20 52.92769 -1.53948 36244 ft 440 kts 326°
2026-04-30 21:21 52.97977 -1.59311 36236 ft 441 kts 327°
2026-04-30 21:22 53.05788 -1.67382 36221 ft 441 kts 326°
2026-04-30 21:23 53.16145 -1.78179 36217 ft 441 kts 326°
2026-04-30 21:23 53.23937 -1.86336 36200 ft 441 kts 326°
2026-04-30 21:24 53.29223 -1.91522 36212 ft 441 kts 329°
2026-04-30 21:24 53.34588 -1.96474 36221 ft 440 kts 329°
2026-04-30 21:25 53.42561 -2.03945 36224 ft 439 kts 329°
2026-04-30 21:26 53.50513 -2.11569 36227 ft 439 kts 328°
2026-04-30 21:27 53.58129 -2.19997 36232 ft 435 kts 313°
2026-04-30 21:27 53.60101 -2.23821 36225 ft 431 kts 302°
2026-04-30 21:27 53.61649 -2.28094 36222 ft 427 kts 292°
2026-04-30 21:28 53.64908 -2.41902 36207 ft 424 kts 288°
2026-04-30 21:29 53.68096 -2.55821 36196 ft 425 kts 287°
2026-04-30 21:30 53.73339 -2.79009 36208 ft 424 kts 287°
2026-04-30 21:31 53.78185 -3.00717 36067 ft 424 kts 287°
2026-04-30 21:32 53.80587 -3.11545 35491 ft 422 kts 287°
2026-04-30 21:32 53.81279 -3.14675 35256 ft 419 kts 287°
2026-04-30 21:32 53.82291 -3.19257 34739 ft 418 kts 287°
2026-04-30 21:32 53.83292 -3.23803 34260 ft 417 kts 287°
2026-04-30 21:33 53.84301 -3.28399 33691 ft 416 kts 287°
2026-04-30 21:33 53.86297 -3.37509 32670 ft 410 kts 287°
2026-04-30 21:33 53.87282 -3.42028 32162 ft 408 kts 287°
2026-04-30 21:34 53.88259 -3.46518 31662 ft 405 kts 287°
2026-04-30 21:34 53.90201 -3.55448 30694 ft 402 kts 287°
2026-04-30 21:34 53.91162 -3.59879 30198 ft 400 kts 287°
2026-04-30 21:35 53.92104 -3.64242 29703 ft 397 kts 287°
2026-04-30 21:35 53.93047 -3.68619 29268 ft 394 kts 285°
2026-04-30 21:35 53.93982 -3.72985 28809 ft 392 kts 285°
2026-04-30 21:35 53.94909 -3.77322 28378 ft 389 kts 285°
2026-04-30 21:36 53.95848 -3.81619 27941 ft 388 kts 288°
2026-04-30 21:36 53.97082 -3.85694 27514 ft 388 kts 296°
2026-04-30 21:37 54.01078 -3.97460 26262 ft 378 kts 295°
2026-04-30 21:37 54.02364 -4.01281 25826 ft 376 kts 295°
2026-04-30 21:37 54.03654 -4.05129 25392 ft 373 kts 294°
2026-04-30 21:37 54.04933 -4.08950 24959 ft 372 kts 294°
2026-04-30 21:38 54.06227 -4.12757 24522 ft 372 kts 297°
2026-04-30 21:38 54.07707 -4.16372 24064 ft 373 kts 300°
2026-04-30 21:38 54.09211 -4.19977 23585 ft 373 kts 300°
2026-04-30 21:38 54.10706 -4.23571 23109 ft 371 kts 300°
2026-04-30 21:39 54.12185 -4.27145 22614 ft 369 kts 300°
2026-04-30 21:39 54.13654 -4.30709 22149 ft 366 kts 300°
2026-04-30 21:39 54.15092 -4.34200 21689 ft 364 kts 300°
2026-04-30 21:39 54.16543 -4.37722 21227 ft 362 kts 300°
2026-04-30 21:40 54.17987 -4.41230 20772 ft 360 kts 300°
2026-04-30 21:40 54.19424 -4.44729 20311 ft 359 kts 300°
2026-04-30 21:40 54.20853 -4.48224 19842 ft 358 kts 300°
2026-04-30 21:40 54.22279 -4.51708 19373 ft 358 kts 300°
2026-04-30 21:41 54.23702 -4.55180 18928 ft 357 kts 300°
2026-04-30 21:41 54.25125 -4.58656 18466 ft 356 kts 300°
2026-04-30 21:41 54.26541 -4.62118 17963 ft 354 kts 300°
2026-04-30 21:41 54.27928 -4.65511 17516 ft 351 kts 300°
2026-04-30 21:42 54.29320 -4.68922 17063 ft 349 kts 300°
2026-04-30 21:42 54.30699 -4.72314 16603 ft 346 kts 300°
2026-04-30 21:42 54.32066 -4.75690 16163 ft 344 kts 300°
2026-04-30 21:42 54.33421 -4.79047 15720 ft 341 kts 300°
2026-04-30 21:43 54.34768 -4.82384 15285 ft 339 kts 300°
2026-04-30 21:43 54.36107 -4.85698 14840 ft 337 kts 300°
2026-04-30 21:43 54.37419 -4.88950 14413 ft 335 kts 300°
2026-04-30 21:43 54.38738 -4.92227 13977 ft 332 kts 300°
2026-04-30 21:44 54.40047 -4.95479 13510 ft 330 kts 300°
2026-04-30 21:44 54.41340 -4.98696 13081 ft 326 kts 300°
2026-04-30 21:44 54.42622 -5.01889 12657 ft 323 kts 300°
2026-04-30 21:44 54.43893 -5.05054 12236 ft 320 kts 300°
2026-04-30 21:45 54.45156 -5.08195 11819 ft 318 kts 300°
2026-04-30 21:45 54.46416 -5.11306 11392 ft 317 kts 301°
2026-04-30 21:45 54.47674 -5.14401 10976 ft 315 kts 301°
2026-04-30 21:45 54.48925 -5.17487 10561 ft 314 kts 301°
2026-04-30 21:46 54.50163 -5.20517 10149 ft 313 kts 303°
2026-04-30 21:46 54.51667 -5.23236 9691 ft 316 kts 318°
2026-04-30 21:46 54.53392 -5.25575 9261 ft 314 kts 320°
2026-04-30 21:46 54.55104 -5.27891 8833 ft 312 kts 320°
2026-04-30 21:47 54.56800 -5.30189 8419 ft 309 kts 320°
2026-04-30 21:47 54.58480 -5.32471 8036 ft 306 kts 320°
2026-04-30 21:47 54.60141 -5.34736 7626 ft 303 kts 320°
2026-04-30 21:47 54.61781 -5.36978 7223 ft 301 kts 320°
2026-04-30 21:48 54.63390 -5.39175 6876 ft 297 kts 320°
2026-04-30 21:48 54.65002 -5.41378 6438 ft 296 kts 320°
2026-04-30 21:48 54.66622 -5.43595 6002 ft 295 kts 320°
2026-04-30 21:48 54.68234 -5.45806 5494 ft 297 kts 320°
2026-04-30 21:49 54.69836 -5.48003 5154 ft 292 kts 320°
2026-04-30 21:49 54.71421 -5.50178 4644 ft 290 kts 320°
2026-04-30 21:49 54.72982 -5.52321 4188 ft 284 kts 320°
2026-04-30 21:49 54.74498 -5.54404 4057 ft 269 kts 320°
2026-04-30 21:50 54.75895 -5.56325 3985 ft 244 kts 320°
2026-04-30 21:50 54.77146 -5.58051 3919 ft 219 kts 319°
2026-04-30 21:50 54.78052 -5.59951 3812 ft 192 kts 294°
2026-04-30 21:50 54.78434 -5.61909 3718 ft 154 kts 273°
2026-04-30 21:51 54.78463 -5.63596 3638 ft 131 kts 254°
2026-04-30 21:51 54.78263 -5.65080 3587 ft 123 kts 239°
2026-04-30 21:51 54.77964 -5.66466 3530 ft 122 kts 239°
2026-04-30 21:51 54.77576 -5.67733 3484 ft 117 kts 225°
2026-04-30 21:52 54.77008 -5.68665 3441 ft 113 kts 207°
2026-04-30 21:52 54.76413 -5.69513 3336 ft 111 kts 208°
2026-04-30 21:52 54.75807 -5.70321 3208 ft 109 kts 206°
2026-04-30 21:52 54.75198 -5.71099 3073 ft 109 kts 206°
2026-04-30 21:53 54.74584 -5.71865 2933 ft 109 kts 205°
2026-04-30 21:53 54.73968 -5.72624 2786 ft 108 kts 204°
2026-04-30 21:53 54.73354 -5.73373 2643 ft 107 kts 204°
2026-04-30 21:53 54.72741 -5.74116 2502 ft 108 kts 204°
2026-04-30 21:54 54.72125 -5.74861 2354 ft 108 kts 204°
2026-04-30 21:54 54.71508 -5.75606 2203 ft 108 kts 204°
2026-04-30 21:54 54.70895 -5.76346 2072 ft 107 kts 204°
2026-04-30 21:54 54.70285 -5.77081 1920 ft 107 kts 204°
2026-04-30 21:55 54.69673 -5.77816 1777 ft 108 kts 205°
2026-04-30 21:55 54.69064 -5.78548 1634 ft 108 kts 206°
2026-04-30 21:55 54.68443 -5.79296 1484 ft 109 kts 207°
2026-04-30 21:55 54.67818 -5.80046 1333 ft 111 kts 209°
2026-04-30 21:56 54.67179 -5.80813 1177 ft 113 kts 210°
2026-04-30 21:56 54.66529 -5.81592 1018 ft 115 kts 211°
2026-04-30 21:56 54.65867 -5.82383 863 ft 117 kts 212°
2026-04-30 21:56 54.65201 -5.83186 689 ft 117 kts 214°
2026-04-30 21:57 54.64530 -5.83991 541 ft 118 kts 215°
2026-04-30 21:57 54.63853 -5.84802 362 ft 119 kts 216°
2026-04-30 21:57 54.63189 -5.85599 216 ft 118 kts 215°
2026-04-30 21:57 54.62500 -5.86418 68 ft 127 kts 217°
2026-04-30 21:58 54.61829 -5.87227 19 ft 94 kts 214°
2026-04-30 21:58 54.61536 -5.87580 15 ft 38 kts 214°
2026-04-30 21:58 54.61383 -5.87764 14 ft 27 kts 216°
2026-04-30 21:58 54.61286 -5.87729 15 ft 16 kts 124°
2026-04-30 21:59 54.61253 -5.87636 19 ft 6 kts 105°
2026-04-30 21:59 54.61264 -5.87585 20 ft 6 kts 51°
2026-04-30 21:59 54.61273 -5.87570 19 ft 2 kts 40°
2026-04-30 22:00 54.61393 -5.87425 23 ft 18 kts 49°
2026-04-30 22:00 54.61544 -5.87188 22 ft 5 kts 90°
2026-04-30 22:00 54.61516 -5.87156 22 ft 2 kts 152°
2026-04-30 22:01 54.61501 -5.87146 24 ft 4 kts 156°
2026-04-30 22:01 54.61499 -5.87144 23 ft 0 kts 156°